Weather History for La Porte, IN

Change the Weather History Date:

Wednesday, March 5, 2014

  Actual Average (KVPZ) Record (KVPZ)
Temperature  
Mean Temperature 17 °F 34 °F  
Max Temperature 23 °F 42 °F 76 °F (1983)
Min Temperature 11 °F 25 °F -3 °F (1978)
Degree Days  
Heating Degree Days 48 31  
Month to date heating degree days 160  
Since 1 July heating degree days 4892  
Cooling Degree Days 0 0  
Month to date cooling degree days 0  
Year to date cooling degree days 0  
Moisture  
Dew Point 12 °F    
Average Humidity 73    
Maximum Humidity 88    
Minimum Humidity 64    
Precipitation  
Precipitation 0.01 in 0.08 in 1.20 in (2004)
Month to date precipitation 0.39  
Year to date precipitation 3.56  
Sea Level Pressure  
Sea Level Pressure 30.36 in    
Wind  
Wind Speed 5 mph (ENE)    
Max Wind Speed 14 mph    
Max Gust Speed 21 mph    
Visibility 7 miles    
Events Snow    
T = Trace of Precipitation, MM = Missing Value Source: NWS Daily Summary

Daily Weather History Graph

Daily Weather History Graph

Search for Another Location

Airport:

Trip Planner

Search our weather history database for the weather conditions in past years. The results will help you decide how hot, cold, wet, or windy it might be!

Date:

Astronomy

Mar. 05, 2014 Rise Set
Actual Time 6:15 AM CST 5:42 PM CST
Civil Twilight 5:47 AM CST 6:09 PM CST
Nautical Twilight 5:15 AM CST 6:42 PM CST
Astronomical Twilight 4:43 AM CST 7:14 PM CST
Moon 8:36 AM CST (3/5) 10:54 PM CST (3/5)
Length of Visible Light 12h 22m
Length of Day
11h 26m
Waxing Crescent, 23% of the Moon is Illuminated
Mar 5
Waxing Crescent
Mar 8
First Quarter
Mar 16
Full
Mar 23
Last Quarter
Mar 30
New

Hourly Weather History & Observations

Time (CST) Temp. Windchill Dew Point Humidity Pressure Visibility Wind Dir Wind Speed Gust Speed Precip Events Conditions
12:15 AM 11.5 °F - 3.9 °F 72% 30.24 in 10.0 mi Calm Calm - N/A   Clear
12:35 AM 11.7 °F - 4.8 °F 74% 30.24 in 10.0 mi Calm Calm - N/A   Mostly Cloudy
12:55 AM 12.6 °F - 5.7 °F 74% 30.25 in 10.0 mi Calm Calm - N/A   Overcast
1:15 AM 14.2 °F - 7.7 °F 75% 30.26 in 10.0 mi Calm Calm - N/A   Overcast
1:35 AM 14.5 °F 8.8 °F 8.1 °F 75% 30.25 in 10.0 mi NE 3.5 mph - N/A   Overcast
1:55 AM 17.2 °F 10.2 °F 7.7 °F 66% 30.25 in 10.0 mi NE 4.6 mph - N/A   Mostly Cloudy
2:15 AM 17.6 °F 12.3 °F 7.3 °F 64% 30.25 in 10.0 mi NE 3.5 mph - N/A   Overcast
2:35 AM 18.0 °F 11.1 °F 7.7 °F 64% 30.25 in 10.0 mi NNE 4.6 mph - N/A   Overcast
2:55 AM 18.1 °F 12.9 °F 8.4 °F 66% 30.26 in 10.0 mi NNE 3.5 mph - N/A   Overcast
3:15 AM 18.5 °F 13.3 °F 8.2 °F 64% 30.27 in 10.0 mi NE 3.5 mph - N/A   Overcast
3:35 AM 18.5 °F 13.3 °F 8.4 °F 65% 30.28 in 10.0 mi NNE 3.5 mph - N/A   Overcast
3:55 AM 18.5 °F 9.3 °F 9.3 °F 67% 30.28 in 10.0 mi NNE 6.9 mph - N/A   Overcast
4:15 AM 18.5 °F 8.4 °F 10.9 °F 72% 30.30 in 10.0 mi NNE 8.1 mph - N/A   Mostly Cloudy
4:35 AM 17.6 °F 10.7 °F 12.9 °F 82% 30.30 in 1.8 mi NE 4.6 mph - N/A Snow Light Snow
4:55 AM 17.6 °F 9.3 °F 13.6 °F 84% 30.30 in 7.0 mi NE 5.8 mph - N/A Snow Light Snow
5:15 AM 17.6 °F 10.7 °F 14.0 °F 86% 30.31 in 2.5 mi ENE 4.6 mph - N/A Snow Light Snow
5:35 AM 17.6 °F 10.7 °F 14.0 °F 86% 30.31 in 2.5 mi ENE 4.6 mph - N/A Snow Light Snow
5:55 AM 17.4 °F 10.4 °F 14.4 °F 88% 30.31 in 2.0 mi ENE 4.6 mph - N/A Snow Light Snow
6:15 AM 17.4 °F 10.4 °F 14.5 °F 88% 30.32 in 3.0 mi NE 4.6 mph - N/A Snow Light Snow
6:35 AM 17.4 °F 10.4 °F 14.5 °F 88% 30.33 in 2.5 mi NE 4.6 mph - N/A Snow Light Snow
6:55 AM 17.6 °F 10.7 °F 14.5 °F 88% 30.34 in 1.5 mi NE 4.6 mph - N/A Snow Light Snow
7:15 AM 17.6 °F 8.2 °F 14.5 °F 88% 30.35 in 1.5 mi NE 6.9 mph - N/A Snow Light Snow
7:35 AM 17.4 °F 6.2 °F 13.8 °F 86% 30.36 in 1.5 mi NE 9.2 mph - N/A Snow Light Snow
7:55 AM 17.4 °F 7.1 °F 14.0 °F 86% 30.36 in 0.8 mi ENE 8.1 mph - 0.01 in Snow Light Snow
8:15 AM 17.6 °F 7.3 °F 14.0 °F 86% 30.37 in 1.2 mi NE 8.1 mph - N/A Snow Light Snow
8:35 AM 18.1 °F 8.9 °F 14.0 °F 84% 30.38 in 2.5 mi NE 6.9 mph - N/A Snow Light Snow
8:55 AM 18.5 °F 10.4 °F 14.0 °F 83% 30.39 in 2.5 mi ENE 5.8 mph - N/A Snow Light Snow
9:15 AM 18.9 °F 10.8 °F 14.0 °F 81% 30.39 in 2.0 mi ENE 5.8 mph - N/A Snow Light Snow
9:35 AM 19.0 °F 8.2 °F 14.2 °F 81% 30.38 in 1.8 mi ENE 9.2 mph - N/A Snow Light Snow
9:55 AM 19.4 °F 9.5 °F 14.0 °F 80% 30.38 in 1.8 mi ENE 8.1 mph - N/A Snow Light Snow
10:15 AM 20.3 °F 11.5 °F 14.7 °F 79% 30.39 in 4.0 mi East 6.9 mph - N/A Snow Light Snow
10:35 AM 20.8 °F 10.4 °F 14.9 °F 78% 30.38 in 1.8 mi East 9.2 mph - N/A Snow Light Snow
10:55 AM 20.8 °F 10.4 °F 14.9 °F 78% 30.38 in 3.0 mi ENE 9.2 mph - N/A Snow Light Snow
11:15 AM 21.0 °F 10.6 °F 14.5 °F 76% 30.39 in 7.0 mi East 9.2 mph - N/A Snow Light Snow
11:35 AM 21.6 °F 12.1 °F 14.9 °F 76% 30.39 in 4.0 mi ENE 8.1 mph - N/A Snow Light Snow
11:55 AM 21.6 °F 12.1 °F 14.9 °F 76% 30.38 in 3.0 mi East 8.1 mph - N/A Snow Light Snow
12:15 PM 21.9 °F 13.4 °F 15.1 °F 75% 30.39 in 4.0 mi ENE 6.9 mph - N/A Snow Light Snow
12:35 PM 22.6 °F 14.3 °F 15.6 °F 74% 30.38 in 4.0 mi ENE 6.9 mph - N/A Snow Light Snow
12:55 PM 22.6 °F 13.4 °F 15.6 °F 74% 30.37 in 7.0 mi ENE 8.1 mph - N/A   Scattered Clouds
1:15 PM 22.8 °F 14.5 °F 15.1 °F 72% 30.37 in 7.0 mi East 6.9 mph - N/A   Scattered Clouds
1:35 PM 23.5 °F 14.5 °F 15.8 °F 72% 30.38 in 5.0 mi East 8.1 mph - N/A Snow Light Snow
1:55 PM 23.4 °F 16.2 °F 15.3 °F 71% 30.38 in 7.0 mi East 5.8 mph - N/A Snow Light Snow
2:15 PM 23.7 °F 16.6 °F 15.8 °F 72% 30.39 in 10.0 mi East 5.8 mph - N/A Snow Light Snow
2:35 PM 23.7 °F 15.6 °F 15.6 °F 71% 30.39 in 7.0 mi East 6.9 mph - N/A   Mostly Cloudy
2:55 PM 23.4 °F 16.2 °F 15.1 °F 71% 30.39 in 10.0 mi East 5.8 mph - N/A   Scattered Clouds
3:15 PM 23.9 °F 15.0 °F 15.3 °F 70% 30.39 in 10.0 mi East 8.1 mph - N/A   Scattered Clouds
3:35 PM 23.7 °F 15.6 °F 15.3 °F 70% 30.39 in 10.0 mi East 6.9 mph - N/A   Scattered Clouds
3:55 PM 23.9 °F 15.8 °F 14.9 °F 69% 30.39 in 10.0 mi East 6.9 mph - N/A   Scattered Clouds
4:15 PM 23.4 °F 16.2 °F 14.4 °F 68% 30.39 in 10.0 mi East 5.8 mph - N/A   Scattered Clouds
4:35 PM 22.8 °F 15.5 °F 14.0 °F 69% 30.39 in 10.0 mi East 5.8 mph - N/A   Clear
4:55 PM 22.3 °F 13.0 °F 12.7 °F 67% 30.40 in 10.0 mi East 8.1 mph - N/A   Clear
5:15 PM 22.1 °F 13.7 °F 12.9 °F 68% 30.40 in 10.0 mi East 6.9 mph - N/A   Clear
5:35 PM 21.7 °F 12.3 °F 11.7 °F 65% 30.40 in 10.0 mi East 8.1 mph - N/A   Clear
5:55 PM 21.7 °F 12.3 °F 12.0 °F 66% 30.40 in 10.0 mi East 8.1 mph - N/A   Scattered Clouds
6:15 PM 21.7 °F 12.3 °F 11.8 °F 66% 30.40 in 10.0 mi East 8.1 mph - N/A   Mostly Cloudy
6:35 PM 21.0 °F 12.4 °F 11.7 °F 67% 30.41 in 10.0 mi East 6.9 mph - N/A   Overcast
6:55 PM 20.3 °F 10.6 °F 10.9 °F 67% 30.41 in 10.0 mi ENE 8.1 mph - N/A   Overcast
7:15 PM 20.5 °F 10.8 °F 10.9 °F 67% 30.41 in 10.0 mi East 8.1 mph - N/A   Mostly Cloudy
7:35 PM 20.3 °F 10.6 °F 11.1 °F 68% 30.41 in 10.0 mi East 8.1 mph - N/A   Mostly Cloudy
7:55 PM 21.0 °F 11.4 °F 11.5 °F 67% 30.41 in 10.0 mi East 8.1 mph - N/A   Mostly Cloudy
8:15 PM 20.8 °F 11.2 °F 11.8 °F 68% 30.41 in 10.0 mi East 8.1 mph - N/A   Overcast
8:35 PM 20.7 °F 9.5 °F 11.8 °F 69% 30.41 in 10.0 mi East 10.4 mph - N/A   Overcast
8:55 PM 21.0 °F 10.6 °F 11.8 °F 68% 30.42 in 10.0 mi ESE 9.2 mph - N/A   Scattered Clouds
9:15 PM 20.5 °F 9.2 °F 11.7 °F 69% 30.43 in 10.0 mi East 10.4 mph - N/A   Scattered Clouds
9:35 PM 19.9 °F 9.3 °F 11.1 °F 69% 30.43 in 10.0 mi ESE 9.2 mph - N/A   Scattered Clouds
9:55 PM 19.0 °F 7.5 °F 10.4 °F 69% 30.44 in 10.0 mi ESE 10.4 mph - N/A   Mostly Cloudy
10:15 PM 18.5 °F 5.5 °F 9.9 °F 69% 30.43 in 10.0 mi ESE 12.7 mph - N/A   Mostly Cloudy
10:35 PM 18.5 °F 6.1 °F 9.5 °F 68% 30.43 in 10.0 mi East 11.5 mph - N/A   Scattered Clouds
10:55 PM 18.5 °F 5.5 °F 9.5 °F 68% 30.43 in 10.0 mi East 12.7 mph - N/A   Mostly Cloudy
11:15 PM 18.3 °F 4.6 °F 9.3 °F 68% 30.42 in 10.0 mi East 13.8 mph - N/A   Mostly Cloudy
11:35 PM 18.1 °F 5.6 °F 8.6 °F 66% 30.42 in 10.0 mi East 11.5 mph - N/A   Scattered Clouds
11:55 PM 18.0 °F 4.8 °F 8.6 °F 67% 30.42 in 10.0 mi ESE 12.7 mph 20.7 mph N/A   Mostly Cloudy